Jackson, KY

8:40 AM EST on November 17, 2019 (GMT -0500)
Carroll

Weather History for KJKL - September, 2019

Change the Weather History Date:

Saturday, September 7, 2019

  Actual Average Record
Temperature  
Mean Temperature 73 °F 71 °F  
Max Temperature 81 °F 81 °F 94 °F (1990)
Min Temperature 64 °F 61 °F 47 °F (1988)
Degree Days  
Heating Degree Days 0 0  
Month to date heating degree days 0 0  
Since 1 July heating degree days 0 2  
Cooling Degree Days 8 7  
Month to date cooling degree days 72 51  
Year to date cooling degree days 1209 1029  
Growing Degree Days 22 (Base 50)    
Moisture  
Dew Point 63 °F    
Average Humidity 77    
Maximum Humidity 100    
Minimum Humidity 54    
Precipitation  
Precipitation 0.00 in 0.11 in 1.04 in (2004)
Month to date precipitation 0.00 0.75  
Year to date precipitation 39.46 34.30  
Snow  
Snow 0.00 in 0.00 in - ()
Month to date snowfall 0.0 0.0  
Since 1 July snowfall 0.0 0.0  
Since 1 September snowfall 0.0 0.0  
Snow Depth 0.00 in    
Sea Level Pressure  
Sea Level Pressure 29.99 in    
Wind  
Wind Speed 2 mph (NW)    
Max Wind Speed 8 mph    
Max Gust Speed 16 mph    
Visibility 10 miles    
Events      
T = Trace of Precipitation, MM = Missing Value Source: NWS Daily Summary

Daily Weather History Graph

Daily Weather History Graph

Search for Another Location

Airport or City:

Astronomy

Sep. 07, 2019 Rise Set
Actual Time 7:08 AM EDT 7:53 PM EDT
Civil Twilight 6:41 AM EDT 8:20 PM EDT
Nautical Twilight 6:10 AM EDT 8:51 PM EDT
Astronomical Twilight 5:38 AM EDT 9:23 PM EDT
Moon 4:02 PM EDT (9/7) 1:04 AM EDT (9/7)
Length of Visible Light 13h 38m
Length of Day
12h 45m
Waxing Gibbous, 65% of the Moon is Illuminated
Sep 7
Waxing Gibbous
Sep 14
Full
Sep 21
Last Quarter
Sep 28
New
Oct 5
First Quarter

Hourly Weather History & Observations

Time (EDT) Temp. Dew Point Humidity Pressure Visibility Wind Dir Wind Speed Gust Speed Precip Events Conditions
12:04 AM 73.9 °F 64.9 °F 73% 29.94 in 10.0 mi NW 5.8 mph - N/A   Overcast
12:21 AM 73.0 °F 66.0 °F 79% 29.94 in 10.0 mi Variable 3.5 mph - N/A   Mostly Cloudy
12:53 AM 72.0 °F 66.0 °F 81% 29.90 in 10.0 mi Variable 5.8 mph - N/A   Scattered Clouds
1:53 AM 70.0 °F 66.0 °F 87% 29.91 in 10.0 mi Variable 3.5 mph - N/A   Partly Cloudy
2:53 AM 68.0 °F 66.0 °F 93% 29.91 in 10.0 mi Variable 3.5 mph - N/A   Clear
3:53 AM 66.9 °F 66.0 °F 97% 29.92 in 10.0 mi Variable 3.5 mph - N/A   Partly Cloudy
4:07 AM 66.9 °F 66.0 °F 97% 29.96 in 10.0 mi NNW 5.8 mph - N/A   Scattered Clouds
4:53 AM 66.0 °F 66.0 °F 100% 29.92 in 10.0 mi Calm Calm - N/A   Scattered Clouds
5:53 AM 64.9 °F 64.9 °F 100% 29.94 in 10.0 mi Calm Calm - N/A   Overcast
6:27 AM 64.9 °F 64.9 °F 100% 30.00 in 9.0 mi Calm Calm - N/A   Mostly Cloudy
6:53 AM 64.9 °F 64.9 °F 100% 29.96 in 9.0 mi Calm Calm - N/A   Overcast
7:53 AM 64.9 °F 64.9 °F 100% 29.98 in 8.0 mi Calm Calm - N/A   Overcast
8:53 AM 66.9 °F 64.9 °F 93% 29.99 in 10.0 mi Calm Calm - N/A   Overcast
9:41 AM 68.0 °F 64.0 °F 87% 30.04 in 10.0 mi Calm Calm - N/A   Overcast
9:53 AM 69.1 °F 64.0 °F 84% 30.01 in 10.0 mi Calm Calm - N/A   Overcast
10:10 AM 68.0 °F 64.0 °F 87% 30.05 in 10.0 mi Calm Calm - N/A   Overcast
10:13 AM 68.0 °F 64.0 °F 87% 30.05 in 10.0 mi NNW 3.5 mph - N/A   Overcast
10:40 AM 70.0 °F 64.0 °F 81% 30.06 in 10.0 mi Calm Calm - N/A   Overcast
10:53 AM 69.1 °F 64.0 °F 84% 30.02 in 10.0 mi Calm Calm - N/A   Overcast
11:50 AM 71.6 °F 64.4 °F 78% 30.06 in 10.0 mi Calm Calm - N/A   Overcast
11:53 AM 72.0 °F 64.0 °F 76% 30.01 in 10.0 mi Calm Calm - N/A   Overcast
12:14 PM 75.0 °F 64.0 °F 69% 30.05 in 10.0 mi North - - N/A   Mostly Cloudy
12:40 PM 73.0 °F 63.0 °F 71% 30.05 in 10.0 mi Calm Calm - N/A   Overcast
12:53 PM 73.9 °F 62.1 °F 66% 30.00 in 10.0 mi Calm Calm - N/A   Mostly Cloudy
1:53 PM 78.1 °F 61.0 °F 56% 29.99 in 10.0 mi Variable 3.5 mph - N/A   Clear
2:53 PM 75.9 °F 60.1 °F 58% 29.98 in 10.0 mi NW 5.8 mph - N/A   Partly Cloudy
3:53 PM 79.0 °F 60.1 °F 52% 29.96 in 10.0 mi Variable 5.8 mph - N/A   Clear
4:53 PM 77.0 °F 60.1 °F 56% 29.95 in 10.0 mi NW 4.6 mph - N/A   Scattered Clouds
5:53 PM 79.0 °F 61.0 °F 54% 29.95 in 10.0 mi Variable 4.6 mph - N/A   Clear
6:53 PM 75.9 °F 61.0 °F 60% 29.97 in 10.0 mi NNW 5.8 mph - N/A   Clear
7:53 PM 72.0 °F 61.0 °F 68% 29.99 in 10.0 mi Calm Calm - N/A   Clear
8:53 PM 68.0 °F 61.0 °F 78% 30.00 in 10.0 mi Calm Calm - N/A   Clear
9:53 PM 66.9 °F 60.1 °F 79% 30.02 in 10.0 mi Calm Calm - N/A   Clear
11:53 PM 64.0 °F 59.0 °F 84% 30.03 in 10.0 mi Calm Calm - N/A   Clear